Dobrodošli na spletni strani vremenske postaje Senovo. Vse informacije so informativnega značaja, saj vremenska postaja ni del državne mreže meteoroloških postaj. AKTUALNIH OBVESTIL NI.


Sneg/Led Od: 23-02-2018 00:00 Do: 23:59 Opozorilo za: Sneg/Led Stopnja: Rumena info button

Pogled proti Armezu več informacij Pogled proti Armezu


Lisca več informacij Lisca


Radar strel več informacij blitzortung!


opozorilo za sneg/led več informacij rain snow radar


Obiščite še:

Template documentation
and downloads

And another site



Weather Underground, zgodovina - Tekstovno

Dnevni povzetek za Februar 7, 2018 Enote:  Angleško    Metrično   Obe
« Predhodni Dan
Naslednji Dan »
Dnevni Tedenski Mesečni Letni Po meri
  Višja: Nižja: Povprečje:
Temperatura: TemperatureC °F -0.6 °F 0.6 °F
Točka rosišča: DewpointC °F -2.2 °F -0.8 °F
Vlažnost: Humidity % 87 % 90 %
Hitrost vetra: WindSpeedKMH mph 0.0 mph 1.9 mph
Sunki vetra: WindSpeedGustKMH mph - -
Veter:- - SSE
Zračni tlak: PressurehPa in 1006.0 in -
Padavine: 11.4 in    
Historical Graphs
 
 
Tabelarni podarki za Februar 7, 2018
Čas Temperatura Točka rosišča Zračni tlak Veter Hitrost vetra Sunki vetra Vlažnost Intenziteta padavin (urna)
TemperatureC °F DewpointC °F PressurehPa in Calm     Humidity % HourlyPrecipMM in
00:04 -0.5 °F -2.1 °F 1013.1 in ESE 4.3 mph 6.9 mph 89 % 1.0 in
00:09 -0.6 °F -2.2 °F 1013.1 in ESE 5.0 mph 7.6 mph 89 % 0.8 in
00:14 -0.6 °F -2.2 °F 1012.1 in ESE 5.0 mph 7.9 mph 89 % 0.8 in
00:19 -0.5 °F -2.1 °F 1012.1 in ESE 5.0 mph 9.0 mph 89 % 0.8 in
00:24 -0.5 °F -2.1 °F 1012.1 in ESE 4.8 mph 9.0 mph 89 % 0.8 in
00:29 -0.5 °F -2.1 °F 1014.1 in ESE 4.7 mph 6.4 mph 89 % 0.5 in
00:34 -0.5 °F -2.1 °F 1014.1 in ESE 5.0 mph 9.3 mph 89 % 0.5 in
00:39 -0.5 °F -2.1 °F 1014.1 in ESE 5.1 mph 9.3 mph 89 % 0.8 in
00:44 -0.5 °F -2.1 °F 1013.1 in SE 5.3 mph 12.2 mph 89 % 0.8 in
00:49 -0.5 °F -2.1 °F 1013.1 in SE 6.1 mph 12.2 mph 89 % 0.5 in
00:54 -0.5 °F -2.1 °F 1013.1 in SE 6.8 mph 9.7 mph 89 % 0.8 in
00:59 -0.5 °F -1.9 °F 1012.1 in SE 6.6 mph 13.0 mph 90 % 0.8 in
01:04 -0.5 °F -1.9 °F 1012.1 in SE 6.1 mph 13.0 mph 90 % 0.8 in
01:09 -0.5 °F -1.9 °F 1012.1 in SE 6.1 mph 11.6 mph 90 % 0.8 in
01:14 -0.5 °F -1.9 °F 1012.1 in SE 6.9 mph 10.5 mph 90 % 0.8 in
01:19 -0.5 °F -1.9 °F 1012.1 in SE 6.4 mph 10.5 mph 90 % 0.8 in
01:24 -0.5 °F -1.9 °F 1012.1 in SE 5.3 mph 10.5 mph 90 % 0.8 in
01:29 -0.5 °F -1.9 °F 1013.1 in SE 4.2 mph 6.9 mph 90 % 0.8 in
01:34 -0.5 °F -1.9 °F 1013.1 in ESE 3.9 mph 6.9 mph 90 % 0.8 in
01:39 -0.6 °F -2.1 °F 1013.1 in SE 3.9 mph 6.1 mph 90 % 0.8 in
01:44 -0.6 °F -2.1 °F 1012.1 in SE 3.5 mph 6.9 mph 90 % 0.8 in
01:49 -0.6 °F -2.1 °F 1012.1 in SE 3.9 mph 6.9 mph 90 % 0.8 in
01:54 -0.6 °F -2.1 °F 1012.1 in SE 4.3 mph 9.3 mph 90 % 0.8 in
01:59 -0.6 °F -2.1 °F 1012.1 in SE 5.3 mph 9.3 mph 90 % 1.0 in
02:04 -0.6 °F -2.1 °F 1012.1 in SE 5.6 mph 10.1 mph 90 % 1.0 in
02:09 -0.6 °F -2.1 °F 1012.1 in SE 5.6 mph 10.1 mph 90 % 1.0 in
02:14 -0.6 °F -2.1 °F 1011.1 in SE 6.3 mph 11.1 mph 90 % 1.0 in
02:19 -0.6 °F -2.1 °F 1011.1 in SE 6.0 mph 11.1 mph 90 % 1.0 in
02:24 -0.6 °F -2.1 °F 1011.1 in SE 4.8 mph 10.1 mph 90 % 1.0 in
02:29 -0.6 °F -2.1 °F 1011.1 in SE 3.2 mph 9.7 mph 90 % 1.0 in
02:34 -0.6 °F -2.1 °F 1011.1 in SE 1.6 mph 4.7 mph 90 % 1.0 in
02:39 -0.5 °F -1.9 °F 1012.1 in SE 1.9 mph 5.8 mph 90 % 1.0 in
02:44 -0.5 °F -1.9 °F 1012.1 in SE 2.3 mph 5.8 mph 90 % 1.3 in
02:49 -0.5 °F -1.9 °F 1012.1 in SE 1.6 mph 4.7 mph 90 % 1.3 in
02:54 -0.5 °F -1.8 °F 1011.1 in SE 1.4 mph 5.8 mph 91 % 1.3 in
02:59 -0.5 °F -1.8 °F 1011.1 in SE 2.9 mph 5.8 mph 91 % 1.3 in
03:04 -0.5 °F -1.8 °F 1011.1 in SE 3.4 mph 5.0 mph 91 % 1.3 in
03:09 -0.5 °F -1.8 °F 1011.1 in SE 2.4 mph 5.0 mph 91 % 1.3 in
03:14 -0.5 °F -1.8 °F 1011.1 in SE 1.8 mph 5.0 mph 91 % 1.3 in
03:19 -0.5 °F -1.8 °F 1011.1 in SE 1.1 mph 3.5 mph 91 % 1.5 in
03:24 -0.5 °F -1.8 °F 1010.0 in SE 1.1 mph 4.0 mph 91 % 1.5 in
03:29 -0.5 °F -1.8 °F 1010.0 in SE 0.6 mph 4.0 mph 91 % 1.5 in
03:34 -0.5 °F -1.8 °F 1010.0 in SE 0.5 mph 3.2 mph 91 % 1.8 in
03:39 -0.6 °F -1.9 °F 1010.0 in SE 0.3 mph 2.1 mph 91 % 1.8 in
03:44 -0.6 °F -1.9 °F 1010.0 in SE 0.2 mph 2.1 mph 91 % 1.8 in
03:49 -0.6 °F -1.9 °F 1010.0 in SE 0.2 mph 2.6 mph 91 % 1.8 in
03:54 -0.6 °F -1.9 °F 1009.0 in SE 0.2 mph 2.6 mph 91 % 1.8 in
03:59 -0.6 °F -1.9 °F 1009.0 in Calm     91 % 1.8 in
04:04 -0.6 °F -1.9 °F 1009.0 in Calm     91 % 1.8 in
04:09 -0.6 °F -1.9 °F 1009.0 in Calm     91 % 1.8 in
04:14 -0.6 °F -1.7 °F 1009.0 in SE 0.2 mph 2.6 mph 92 % 1.8 in
04:19 -0.6 °F -1.7 °F 1009.0 in SE 0.2 mph 2.6 mph 92 % 1.8 in
04:24 -0.6 °F -1.7 °F 1009.0 in Calm     92 % 1.8 in
04:29 -0.6 °F -1.7 °F 1009.0 in Calm     92 % 1.5 in
04:34 -0.6 °F -1.7 °F 1009.0 in SE 0.3 mph 2.6 mph 92 % 1.3 in
04:39 -0.6 °F -1.7 °F 1009.0 in SE 0.6 mph 2.6 mph 92 % 1.3 in
04:44 -0.5 °F -1.7 °F 1009.0 in SE 1.0 mph 5.0 mph 92 % 1.5 in
04:49 -0.5 °F -1.7 °F 1009.0 in SE 2.4 mph 6.4 mph 92 % 1.5 in
04:54 -0.5 °F -1.7 °F 1008.0 in SE 3.1 mph 6.4 mph 92 % 1.5 in
04:59 -0.5 °F -1.7 °F 1008.0 in SE 2.7 mph 5.5 mph 92 % 1.3 in
05:04 -0.5 °F -1.7 °F 1008.0 in SE 2.1 mph 5.5 mph 92 % 1.3 in
05:09 -0.4 °F -1.6 °F 1009.0 in SE 2.7 mph 6.9 mph 92 % 1.3 in
05:14 -0.4 °F -1.6 °F 1009.0 in SE 3.7 mph 6.9 mph 92 % 1.3 in
05:19 -0.3 °F -1.3 °F 1009.0 in SE 2.6 mph 5.5 mph 93 % 1.3 in
05:24 -0.3 °F -1.3 °F 1010.0 in SE 1.8 mph 4.7 mph 93 % 1.3 in
05:29 -0.3 °F -1.3 °F 1010.0 in SE 1.8 mph 4.7 mph 93 % 1.3 in
05:34 -0.3 °F -1.3 °F 1010.0 in SE 1.3 mph 5.5 mph 93 % 1.5 in
05:39 -0.2 °F -1.2 °F 1009.0 in SE 1.6 mph 5.5 mph 93 % 1.3 in
05:44 -0.2 °F -1.2 °F 1009.0 in SE 1.6 mph 4.3 mph 93 % 1.0 in
05:49 -0.2 °F -1.2 °F 1009.0 in SE 0.5 mph 3.2 mph 93 % 1.0 in
05:54 -0.2 °F -1.2 °F 1009.0 in SE 0.3 mph 3.2 mph 93 % 1.3 in
05:59 -0.2 °F -1.2 °F 1009.0 in SE 1.1 mph 4.3 mph 93 % 1.0 in
06:04 -0.2 °F -1.2 °F 1009.0 in SE 1.4 mph 4.3 mph 93 % 1.0 in
06:09 -0.2 °F -1.2 °F 1008.0 in SE 1.0 mph 3.2 mph 93 % 1.0 in
06:14 -0.1 °F -1.1 °F 1008.0 in SE 2.1 mph 5.8 mph 93 % 1.0 in
06:19 -0.1 °F -1.1 °F 1008.0 in SE 3.9 mph 7.9 mph 93 % 1.0 in
06:24 0.0 °F -1.0 °F 1008.0 in SE 4.8 mph 7.9 mph 93 % 1.0 in
06:29 0.0 °F -1.0 °F 1008.0 in SE 5.0 mph 7.6 mph 93 % 1.0 in
06:34 0.1 °F -0.9 °F 1008.0 in SE 4.7 mph 7.6 mph 93 % 0.8 in
06:39 0.1 °F -0.9 °F 1008.0 in SE 4.7 mph 9.0 mph 93 % 1.0 in
06:44 0.2 °F -0.8 °F 1008.0 in SE 3.7 mph 9.0 mph 93 % 1.0 in
06:49 0.2 °F -0.8 °F 1008.0 in SE 2.6 mph 5.5 mph 93 % 0.8 in
06:54 0.2 °F -0.8 °F 1008.0 in SE 2.4 mph 4.3 mph 93 % 0.5 in
06:59 0.2 °F -0.8 °F 1008.0 in SE 3.1 mph 6.4 mph 93 % 0.8 in
07:04 0.3 °F -0.6 °F 1008.0 in SE 3.9 mph 6.4 mph 94 % 0.8 in
07:09 0.3 °F -0.6 °F 1008.0 in SE 3.9 mph 7.6 mph 94 % 0.8 in
07:14 0.3 °F -0.6 °F 1008.0 in SE 3.2 mph 7.6 mph 94 % 0.5 in
07:19 0.3 °F -0.6 °F 1008.0 in SE 1.8 mph 6.4 mph 94 % 0.5 in
07:24 0.3 °F -0.6 °F 1008.0 in SE 0.8 mph 6.4 mph 94 % 0.5 in
07:29 0.3 °F -0.6 °F 1008.0 in SE 1.4 mph 4.3 mph 94 % 0.5 in
07:34 0.3 °F -0.7 °F 1008.0 in SE 1.3 mph 4.3 mph 93 % 0.5 in
07:39 0.3 °F -0.7 °F 1008.0 in SE 0.8 mph 3.5 mph 93 % 0.3 in
07:44 0.2 °F -0.8 °F 1008.0 in SE 2.4 mph 4.7 mph 93 % 0.3 in
07:49 0.2 °F -0.8 °F 1008.0 in SE 2.7 mph 4.7 mph 93 % 0.3 in
07:54 0.2 °F -0.8 °F 1008.0 in SE 1.6 mph 4.3 mph 93 % 0.3 in
07:59 0.2 °F -0.8 °F 1008.0 in SE 0.5 mph 1.8 mph 93 % 0.3 in
08:04 0.2 °F -0.8 °F 1008.0 in SE 0.2 mph 4.0 mph 93 % 0.3 in
08:09 0.3 °F -0.7 °F 1008.0 in SE 0.3 mph 4.0 mph 93 % 0.3 in
08:14 0.3 °F -0.7 °F 1008.0 in SE 0.3 mph 3.5 mph 93 % 0.3 in
08:19 0.3 °F -0.7 °F 1008.0 in SE 0.2 mph 1.8 mph 93 % 0.5 in
08:24 0.3 °F -0.7 °F 1008.0 in SE 1.0 mph 4.0 mph 93 % 0.3 in
08:29 0.4 °F -0.4 °F 1008.0 in SE 2.4 mph 6.4 mph 94 % 0.3 in
08:34 0.4 °F -0.4 °F 1008.0 in SE 3.7 mph 6.4 mph 94 % 0.3 in
08:39 0.6 °F -0.3 °F 1008.0 in SE 4.3 mph 9.7 mph 94 % 0.3 in
08:44 0.6 °F -0.3 °F 1008.0 in SE 5.5 mph 9.7 mph 94 % 0.3 in
08:49 0.7 °F -0.2 °F 1008.0 in SE 5.3 mph 9.3 mph 94 % 0.3 in
08:54 0.7 °F -0.2 °F 1009.0 in SE 5.1 mph 10.1 mph 94 % 0.5 in
08:59 0.8 °F -0.1 °F 1009.0 in SE 5.8 mph 10.1 mph 94 % 0.3 in
09:04 0.8 °F -0.1 °F 1009.0 in SE 5.0 mph 7.9 mph 94 % 0.3 in
09:09 0.9 °F 0.1 °F 1008.0 in SE 3.7 mph 6.9 mph 94 % 0.3 in
09:14 0.9 °F 0.1 °F 1008.0 in SE 2.6 mph 5.0 mph 94 % 0.3 in
09:19 0.9 °F -0.1 °F 1008.0 in SE 1.4 mph 4.7 mph 93 % 0.3 in
09:24 0.9 °F -0.1 °F 1009.0 in SE 2.3 mph 5.8 mph 93 % 0.3 in
09:29 0.9 °F -0.1 °F 1009.0 in SE 2.6 mph 5.8 mph 93 % 0.3 in
09:34 0.9 °F -0.1 °F 1009.0 in SE 1.8 mph 5.5 mph 93 % 0.3 in
09:39 0.9 °F -0.1 °F 1008.0 in SE 1.0 mph 5.0 mph 93 % 0.3 in
09:44 0.9 °F -0.1 °F 1008.0 in SE 0.6 mph 4.3 mph 93 % 0.3 in
09:49 0.9 °F -0.1 °F 1008.0 in SE 0.5 mph 4.7 mph 93 % 0.0 in
09:54 1.0 °F -0.2 °F 1008.0 in SE 1.8 mph 5.8 mph 92 % 0.0 in
09:59 1.0 °F -0.2 °F 1008.0 in SE 3.5 mph 5.8 mph 92 % 0.0 in
10:04 1.1 °F -0.1 °F 1008.0 in SE 3.7 mph 10.1 mph 92 % 0.0 in
10:09 1.1 °F -0.1 °F 1008.0 in SE 2.4 mph 10.1 mph 92 % 0.0 in
10:14 1.2 °F 0.1 °F 1008.0 in SE 1.1 mph 4.3 mph 92 % 0.0 in
10:19 1.2 °F 0.1 °F 1008.0 in SE 2.3 mph 6.1 mph 92 % 0.0 in
10:24 1.2 °F 0.1 °F 1009.0 in SE 2.4 mph 6.1 mph 92 % 0.0 in
10:29 1.2 °F 0.1 °F 1009.0 in SE 1.3 mph 4.3 mph 92 % 0.0 in
10:34 1.3 °F 0.2 °F 1009.0 in SE 1.6 mph 6.1 mph 92 % 0.0 in
10:39 1.3 °F 0.2 °F 1008.0 in SE 3.2 mph 6.1 mph 92 % 0.0 in
10:45 1.3 °F 0.2 °F 1008.0 in SE 3.2 mph 6.1 mph 92 % 0.0 in
10:50 1.3 °F 0.0 °F 1008.0 in SE 1.6 mph 4.3 mph 91 % 0.0 in
10:55 1.4 °F 0.1 °F 1008.0 in SE 0.5 mph 4.0 mph 91 % 0.0 in
11:00 1.4 °F 0.1 °F 1008.0 in SE 1.9 mph 7.6 mph 91 % 0.0 in
11:05 1.4 °F 0.1 °F 1008.0 in SE 2.7 mph 7.6 mph 91 % 0.0 in
11:10 1.4 °F 0.1 °F 1008.0 in SE 1.4 mph 5.0 mph 91 % 0.0 in
11:15 1.5 °F 0.2 °F 1008.0 in SE 1.4 mph 5.0 mph 91 % 0.0 in
11:20 1.5 °F 0.2 °F 1008.0 in SE 1.0 mph 4.0 mph 91 % 0.0 in
11:25 1.5 °F 0.1 °F 1008.0 in SE 0.8 mph 5.8 mph 90 % 0.0 in
11:30 1.5 °F 0.1 °F 1008.0 in SE 2.7 mph 6.4 mph 90 % 0.0 in
11:35 1.5 °F 0.1 °F 1008.0 in SE 3.7 mph 6.4 mph 90 % 0.0 in
11:40 1.6 °F 0.1 °F 1008.0 in SE 1.9 mph 6.4 mph 90 % 0.0 in
11:45 1.7 °F 0.2 °F 1008.0 in SE 1.0 mph 4.7 mph 90 % 0.0 in
11:50 1.8 °F 0.3 °F 1008.0 in SE 3.1 mph 7.9 mph 90 % 0.0 in
11:55 1.7 °F 0.2 °F 1007.0 in SE 5.5 mph 7.9 mph 90 % 0.0 in
12:00 1.6 °F 0.0 °F 1007.0 in SE 6.6 mph 8.7 mph 89 % 0.0 in
12:05 1.6 °F 0.0 °F 1007.0 in SE 5.8 mph 8.7 mph 89 % 0.0 in
12:10 1.6 °F 0.0 °F 1008.0 in SE 4.5 mph 6.1 mph 89 % 0.0 in
12:15 1.6 °F 0.0 °F 1008.0 in SE 4.5 mph 6.4 mph 89 % 0.0 in
12:20 1.6 °F 0.0 °F 1008.0 in SE 2.9 mph 6.4 mph 89 % 0.0 in
12:25 1.7 °F 0.1 °F 1008.0 in SE 1.0 mph 4.0 mph 89 % 0.0 in
12:30 1.8 °F 0.2 °F 1008.0 in SE 0.2 mph 3.2 mph 89 % 0.0 in
12:35 1.8 °F 0.2 °F 1008.0 in SE 0.6 mph 3.2 mph 89 % 0.0 in
12:40 1.8 °F 0.2 °F 1008.0 in SE 1.4 mph 6.9 mph 89 % 0.0 in
12:45 1.7 °F 0.1 °F 1008.0 in SE 3.4 mph 9.3 mph 89 % 0.0 in
12:50 1.7 °F 0.1 °F 1008.0 in SE 5.5 mph 9.3 mph 89 % 0.0 in
12:55 1.8 °F 0.2 °F 1008.0 in SE 5.1 mph 8.7 mph 89 % 0.0 in
13:00 1.8 °F 0.2 °F 1008.0 in SE 5.1 mph 9.0 mph 89 % 0.0 in
13:05 1.8 °F 0.0 °F 1008.0 in SE 5.5 mph 10.5 mph 88 % 0.0 in
13:10 1.7 °F -0.1 °F 1008.0 in SE 5.0 mph 10.5 mph 88 % 0.0 in
13:15 1.7 °F -0.1 °F 1008.0 in SE 4.7 mph 7.9 mph 88 % 0.0 in
13:20 1.7 °F -0.1 °F 1008.0 in SE 4.2 mph 7.9 mph 88 % 0.0 in
13:25 1.7 °F -0.1 °F 1007.0 in SE 4.3 mph 7.9 mph 88 % 0.0 in
13:30 1.8 °F 0.0 °F 1007.0 in SE 4.8 mph 10.5 mph 88 % 0.0 in
13:35 1.9 °F 0.1 °F 1007.0 in SE 3.1 mph 10.5 mph 88 % 0.0 in
13:40 2.0 °F 0.2 °F 1007.0 in ESE 1.0 mph 5.5 mph 88 % 0.0 in
13:45 2.0 °F 0.1 °F 1007.0 in ESE 2.4 mph 6.1 mph 87 % 0.0 in
13:50 2.0 °F 0.1 °F 1007.0 in ESE 4.7 mph 7.6 mph 87 % 0.0 in
13:55 2.0 °F 0.1 °F 1008.0 in ESE 4.0 mph 7.6 mph 87 % 0.0 in
14:00 2.0 °F 0.1 °F 1008.0 in ESE 2.7 mph 5.8 mph 87 % 0.0 in
14:05 1.9 °F -0.1 °F 1008.0 in ESE 3.4 mph 6.1 mph 87 % 0.0 in
14:10 1.9 °F -0.1 °F 1008.0 in ESE 3.5 mph 6.1 mph 87 % 0.0 in
14:15 1.9 °F -0.1 °F 1008.0 in ESE 2.4 mph 5.5 mph 87 % 0.0 in
14:20 1.9 °F -0.1 °F 1008.0 in East 2.3 mph 6.9 mph 87 % 0.0 in
14:25 1.9 °F -0.1 °F 1007.0 in East 2.3 mph 6.9 mph 87 % 0.0 in
14:30 1.8 °F -0.1 °F 1007.0 in SSW 2.9 mph 6.9 mph 87 % 0.0 in
14:35 1.7 °F -0.2 °F 1007.0 in SW 4.2 mph 6.9 mph 87 % 0.0 in
14:40 1.6 °F -0.3 °F 1008.0 in SW 4.3 mph 5.8 mph 87 % 0.0 in
14:45 1.6 °F -0.3 °F 1008.0 in SW 3.2 mph 5.8 mph 87 % 0.0 in
14:50 1.6 °F -0.3 °F 1008.0 in WSW 0.8 mph 4.7 mph 87 % 0.0 in
14:55 1.6 °F -0.3 °F 1007.0 in Calm     87 % 0.0 in
15:00 1.6 °F -0.3 °F 1007.0 in Calm     87 % 0.0 in
15:05 1.7 °F -0.2 °F 1007.0 in Calm     87 % 0.0 in
15:10 1.6 °F -0.3 °F 1007.0 in Calm     87 % 0.0 in
15:15 1.6 °F -0.3 °F 1007.0 in Calm   4.0 mph 87 % 0.0 in
15:20 1.7 °F -0.2 °F 1007.0 in NW 0.2 mph 4.0 mph 87 % 0.0 in
15:25 1.7 °F -0.2 °F 1007.0 in Calm   1.4 mph 87 % 0.0 in
15:30 1.6 °F -0.3 °F 1007.0 in WSW 0.2 mph 3.2 mph 87 % 0.0 in
15:35 1.6 °F -0.3 °F 1007.0 in West 1.3 mph 4.0 mph 87 % 0.0 in
15:40 1.6 °F -0.3 °F 1007.0 in West 1.8 mph 4.0 mph 87 % 0.0 in
15:45 1.6 °F -0.3 °F 1007.0 in West 0.8 mph 2.6 mph 87 % 0.0 in
15:50 1.6 °F -0.3 °F 1007.0 in NNW 0.8 mph 4.0 mph 87 % 0.0 in
15:55 1.6 °F -0.3 °F 1007.0 in West 1.9 mph 4.3 mph 87 % 0.0 in
16:00 1.6 °F -0.3 °F 1007.0 in SW 1.8 mph 4.3 mph 87 % 0.0 in
16:05 1.5 °F -0.4 °F 1007.0 in SSW 2.3 mph 6.1 mph 87 % 0.0 in
16:10 1.5 °F -0.4 °F 1007.0 in SSW 3.9 mph 6.1 mph 87 % 0.0 in
16:15 1.4 °F -0.6 °F 1007.0 in SSW 3.5 mph 6.1 mph 87 % 0.0 in
16:20 1.4 °F -0.6 °F 1007.0 in SSW 2.6 mph 4.3 mph 87 % 0.0 in
16:25 1.4 °F -0.6 °F 1007.0 in SSE 2.3 mph 4.7 mph 87 % 0.0 in
16:31 1.3 °F -0.6 °F 1007.0 in SE 2.3 mph 4.7 mph 87 % 0.0 in
16:35 1.3 °F -0.6 °F 1007.0 in SE 1.0 mph 4.3 mph 87 % 0.0 in
16:40 1.2 °F -0.7 °F 1007.0 in West 1.3 mph 4.3 mph 87 % 0.0 in
16:46 1.2 °F -0.7 °F 1007.0 in WNW 2.4 mph 4.7 mph 87 % 0.0 in
16:51 1.1 °F -0.8 °F 1007.0 in WNW 1.1 mph 4.7 mph 87 % 0.0 in
16:56 1.1 °F -0.8 °F 1006.0 in Calm     87 % 0.0 in
17:01 1.1 °F -0.8 °F 1006.0 in Calm     87 % 0.0 in
17:06 1.0 °F -0.9 °F 1006.0 in Calm     87 % 0.0 in
17:11 1.0 °F -0.9 °F 1007.0 in Calm   1.8 mph 87 % 0.0 in
17:16 1.0 °F -0.8 °F 1007.0 in Calm   1.8 mph 88 % 0.0 in
17:21 1.0 °F -0.8 °F 1007.0 in South 0.8 mph 4.3 mph 88 % 0.0 in
17:26 1.0 °F -0.8 °F 1007.0 in South 0.8 mph 4.3 mph 88 % 0.0 in
17:31 0.9 °F -0.9 °F 1007.0 in Calm     88 % 0.0 in
17:36 0.9 °F -0.9 °F 1007.0 in WSW 0.6 mph 3.2 mph 88 % 0.0 in
17:41 0.9 °F -0.9 °F 1006.0 in WSW 2.1 mph 4.0 mph 88 % 0.0 in
17:46 0.8 °F -0.9 °F 1006.0 in WSW 2.4 mph 4.0 mph 88 % 0.0 in
17:51 0.8 °F -0.9 °F 1006.0 in WSW 1.1 mph 4.0 mph 88 % 0.0 in
17:56 0.8 °F -0.8 °F 1007.0 in Calm   1.4 mph 89 % 0.0 in
18:01 0.8 °F -0.8 °F 1007.0 in Calm   1.4 mph 89 % 0.0 in
18:06 0.8 °F -0.8 °F 1007.0 in Calm     89 % 0.0 in
18:11 0.8 °F -0.8 °F 1008.0 in Calm     89 % 0.0 in
18:16 0.8 °F -0.8 °F 1008.0 in Calm     89 % 0.0 in
18:21 0.7 °F -0.9 °F 1008.0 in Calm     89 % 0.0 in
18:26 0.7 °F -0.9 °F 1008.0 in Calm     89 % 0.0 in
18:31 0.7 °F -0.9 °F 1008.0 in Calm     89 % 0.0 in
18:36 0.7 °F -0.9 °F 1008.0 in Calm     89 % 0.0 in
18:41 0.7 °F -0.9 °F 1008.0 in Calm     89 % 0.0 in
18:46 0.7 °F -0.9 °F 1008.0 in Calm     89 % 0.0 in
18:51 0.7 °F -0.9 °F 1008.0 in Calm     89 % 0.0 in
18:56 0.7 °F -0.8 °F 1008.0 in Calm     90 % 0.0 in
19:01 0.7 °F -0.8 °F 1008.0 in Calm     90 % 0.0 in
19:06 0.7 °F -0.8 °F 1008.0 in Calm     90 % 0.0 in
19:11 0.7 °F -0.8 °F 1008.0 in Calm     90 % 0.0 in
19:16 0.7 °F -0.8 °F 1008.0 in Calm     90 % 0.0 in
19:21 0.7 °F -0.8 °F 1008.0 in Calm     90 % 0.0 in
19:26 0.7 °F -0.8 °F 1008.0 in Calm     90 % 0.0 in
19:31 0.7 °F -0.8 °F 1008.0 in Calm     90 % 0.0 in
19:36 0.6 °F -0.8 °F 1008.0 in Calm     90 % 0.0 in
19:41 0.6 °F -0.8 °F 1008.0 in Calm     90 % 0.0 in
19:46 0.6 °F -0.8 °F 1008.0 in Calm     90 % 0.0 in
19:51 0.6 °F -0.8 °F 1008.0 in Calm     90 % 0.0 in
19:56 0.6 °F -0.7 °F 1008.0 in Calm     91 % 0.0 in
20:01 0.6 °F -0.7 °F 1008.0 in Calm     91 % 0.0 in
20:06 0.6 °F -0.7 °F 1008.0 in Calm     91 % 0.0 in
20:11 0.6 °F -0.7 °F 1008.0 in Calm     91 % 0.0 in
20:16 0.6 °F -0.7 °F 1008.0 in Calm     91 % 0.0 in
20:21 0.6 °F -0.7 °F 1008.0 in Calm     91 % 0.0 in
20:26 0.6 °F -0.7 °F 1008.0 in Calm     91 % 0.0 in
20:31 0.6 °F -0.7 °F 1008.0 in Calm     91 % 0.0 in
20:36 0.6 °F -0.7 °F 1008.0 in Calm     91 % 0.0 in
20:41 0.6 °F -0.6 °F 1008.0 in Calm     92 % 0.0 in
20:46 0.6 °F -0.6 °F 1008.0 in Calm     92 % 0.0 in
20:52 0.6 °F -0.6 °F 1008.0 in Calm     92 % 0.0 in
20:57 0.6 °F -0.6 °F 1008.0 in Calm     92 % 0.3 in
21:02 0.6 °F -0.6 °F 1008.0 in Calm     92 % 0.5 in
21:07 0.6 °F -0.6 °F 1008.0 in Calm     92 % 0.8 in
21:12 0.6 °F -0.6 °F 1008.0 in Calm     92 % 0.8 in
21:17 0.6 °F -0.6 °F 1008.0 in Calm     92 % 0.8 in
21:22 0.6 °F -0.6 °F 1008.0 in Calm     92 % 0.8 in
21:27 0.6 °F -0.6 °F 1008.0 in Calm     92 % 1.0 in
21:32 0.6 °F -0.6 °F 1008.0 in Calm     92 % 1.0 in
21:37 0.6 °F -0.4 °F 1008.0 in Calm     93 % 1.0 in
21:42 0.6 °F -0.4 °F 1008.0 in Calm     93 % 1.0 in
21:47 0.6 °F -0.4 °F 1008.0 in Calm     93 % 1.0 in
21:52 0.6 °F -0.4 °F 1008.0 in Calm     93 % 1.0 in
21:57 0.6 °F -0.4 °F 1008.0 in Calm     93 % 0.8 in
22:02 0.6 °F -0.4 °F 1008.0 in Calm     93 % 0.5 in
22:07 0.6 °F -0.4 °F 1008.0 in Calm     93 % 0.5 in
22:12 0.6 °F -0.4 °F 1008.0 in Calm     93 % 0.5 in
22:17 0.6 °F -0.4 °F 1008.0 in Calm     93 % 0.5 in
22:22 0.6 °F -0.4 °F 1008.0 in Calm     93 % 0.5 in
22:27 0.6 °F -0.4 °F 1008.0 in Calm     93 % 0.5 in
22:32 0.6 °F -0.4 °F 1008.0 in Calm     93 % 0.5 in
22:37 0.6 °F -0.4 °F 1008.0 in Calm     93 % 0.5 in
22:42 0.6 °F -0.4 °F 1008.0 in Calm     93 % 0.5 in
22:47 0.6 °F -0.3 °F 1008.0 in Calm     94 % 0.8 in
22:52 0.6 °F -0.3 °F 1008.0 in Calm     94 % 0.8 in
22:57 0.6 °F -0.3 °F 1008.0 in Calm     94 % 0.8 in
23:02 0.6 °F -0.3 °F 1008.0 in Calm     94 % 0.8 in
23:07 0.6 °F -0.3 °F 1008.0 in Calm     94 % 0.8 in
23:12 0.6 °F -0.3 °F 1008.0 in Calm     94 % 0.8 in
23:17 0.6 °F -0.3 °F 1008.0 in Calm     94 % 0.8 in
23:22 0.6 °F -0.3 °F 1008.0 in Calm     94 % 0.8 in
23:27 0.6 °F -0.3 °F 1009.0 in Calm     94 % 1.0 in
23:32 0.6 °F -0.3 °F 1009.0 in Calm     94 % 0.8 in
23:38 0.6 °F -0.3 °F 1009.0 in Calm     94 % 1.0 in
23:43 0.6 °F -0.3 °F 1009.0 in Calm     94 % 1.0 in
23:48 0.6 °F -0.3 °F 1009.0 in Calm     94 % 1.0 in
23:53 0.6 °F -0.3 °F 1009.0 in Calm     94 % 1.0 in
23:58 0.6 °F -0.3 °F 1009.0 in Calm     94 % 1.0 in
Vremenska postaja Senovo
Podatki zbrani iz Weather Underground - 3 mb

Script developed by  Jim McMurry - jmcmurry@mwt.net Adapted for the template by  Wim van der Kuil - Leuven-Template.eu

Vremenski podatki so objavljeni na:

European Weather Network

WeatherCloud

Weather Underground

AWEKAS

HAMweather, WeatherForYou, PWS Weather

MapView

Geostik

Slovenia weather network

Oprema, ki se uporablja:

Vremenski program
Cumulus

Vremenski server
Asus

Cumulus

Asus